DW6561 Weather Reports


time (UTC)temp
F
wind
direction
speed
knots
gust
knots
rain 1hr
in
rain 24hr
in
rain mn
in
humidity
%
barometer
mb
20260504081526 68 247 0.0 3.5 0.00 0.00 0.00 35 1008.3
20260504050012 72 172 0.9 4.3 0.00 0.00 0.00 30 1008.6
20260504044519 73 159 0.9 3.5 0.00 0.00 0.00 30 1008.5
20260504043005 73 173 1.7 6.1 0.00 0.00 0.00 30 1008.7
20260504041512 73 146 0.9 2.6 0.00 0.00 0.00 30 1008.6
20260504040016 74 134 0.9 4.3 0.00 0.00 0.00 30 1008.6
20260504034531 74 154 0.9 4.3 0.00 0.00 0.00 31 1008.5
20260504033011 76 121 0.9 2.6 0.00 0.00 0.00 30 1008.5
20260504031515 77 149 0.0 1.7 0.00 0.00 0.00 29 1008.5
20260504030006 78 61 0.0 0.9 0.00 0.00 0.00 26 1008.5
20260504024521 79 61 0.0 0.9 0.00 0.00 0.00 27 1008.5
20260504023022 81 61 0.0 0.0 0.00 0.00 0.00 26 1008.6
20260504021515 82 61 0.0 0.9 0.00 0.00 0.00 24 1008.6
20260504020020 82 100 0.0 0.0 0.00 0.00 0.00 24 1008.7
20260504014521 83 100 0.0 1.7 0.00 0.00 0.00 23 1008.9
20260504013012 84 78 0.0 1.7 0.00 0.00 0.00 23 1009.0
20260504011502 84 78 0.0 2.6 0.00 0.00 0.00 22 1009.1
20260504010003 85 86 0.0 1.7 0.00 0.00 0.00 22 1009.4
20260504004507 86 119 0.0 3.5 0.00 0.00 0.00 22 1009.6
20260504003005 87 64 0.9 2.6 0.00 0.00 0.00 20 1009.7
20260504001504 87 314 0.9 3.5 0.00 0.00 0.00 21 1009.8
20260504000004 88 317 0.0 2.6 0.00 0.00 0.00 22 1010.0
20260503234504 88 298 0.0 3.5 0.00 0.00 0.00 20 1010.2
20260503233006 88 352 0.0 2.6 0.00 0.00 0.00 22 1010.4
20260503231508 88 298 0.9 3.5 0.00 0.00 0.00 21 1010.5
20260503230006 88 312 0.0 3.5 0.00 0.00 0.00 23 1010.6
20260503224503 88 293 0.0 1.7 0.00 0.00 0.00 23 1010.8
20260503223004 88 309 0.9 3.5 0.00 0.00 0.00 24 1011.0
20260503221509 88 288 0.9 2.6 0.00 0.00 0.00 23 1011.2
20260503220010 87 322 0.9 3.5 0.00 0.00 0.00 24 1011.4
20260503214510 87 307 0.9 2.6 0.00 0.00 0.00 25 1011.8
20260503213003 87 319 0.0 2.6 0.00 0.00 0.00 23 1011.9
20260503211502 87 323 0.9 3.5 0.00 0.00 0.00 26 1012.0
20260503210009 86 347 0.0 2.6 0.00 0.00 0.00 24 1012.4
20260503204523 85 318 0.0 2.6 0.00 0.00 0.00 32 1012.6
20260503203024 84 101 0.0 2.6 0.00 0.00 0.00 29 1012.7
20260503201507 84 324 0.0 1.7 0.00 0.00 0.00 28 1012.8
20260503200012 84 92 0.0 1.7 0.00 0.00 0.00 28 1013.0
20260503194512 83 318 0.0 2.6 0.00 0.00 0.00 35 1013.2
20260503193005 83 328 0.0 1.7 0.00 0.00 0.00 33 1013.5
20260503191526 82 322 0.0 2.6 0.00 0.00 0.00 33 1013.8
20260503190011 81 315 0.0 1.7 0.00 0.00 0.00 35 1013.9
20260503184509 80 309 0.0 1.7 0.00 0.00 0.00 37 1014.0
20260503183027 79 315 0.0 1.7 0.00 0.00 0.00 40 1014.0
20260503181527 78 296 0.0 2.6 0.00 0.00 0.00 40 1014.3
20260503180010 76 328 0.0 2.6 0.00 0.00 0.00 42 1014.5
20260503174508 75 274 0.0 2.6 0.00 0.00 0.00 42 1014.6
20260503173038 74 321 0.0 2.6 0.00 0.00 0.00 44 1014.7
20260503171518 73 323 0.0 1.7 0.00 0.00 0.00 43 1014.7